Location: Darmstadt
(49.8706°N, 8.6494°E)
Time: 06:35:07
(UTC+01:00)

FALCON 9 DEB - Pass Details

Date: 31 October 2020
Orbit: 382 x 396 km, 53.0° (Epoch: 03 December)

Event Time Altitude Azimuth Distance (km) Brightness Sun altitude
Rises 18:44:21 0° 269° (W) 2,316 8.6 -16.6°
Reaches altitude 10° 18:46:29 10° 275° (W) 1,456 7.1 -17.0°
Maximum altitude 18:49:39 49° 352° (N) 527 3.5 -17.5°
Enters shadow 18:50:17 41° 31° (NNE) 591 3.5 -17.6°
